Location: Newark
(48.2308°N, 120.8549°W)
Time: 14:51:03
(UTC+00:00)

Transit 2A Rocket - Pass Details

Date: 26 May 2020
Orbit: 584 x 919 km, 66.7° (Epoch: 07 July)

Event Time Altitude Azimuth Distance (km) Brightness Sun altitude
Rises 17:40:20 0° 313° (NW) 3,518 8.0 51.2°
Reaches altitude 10° 17:43:36 10° 296° (WNW) 2,601 7.5 51.6°
Maximum altitude 17:47:33 18° 255° (WSW) 2,082 7.2 52.2°
Drops below altitude 10° 17:51:31 10° 214° (SW) 2,604 7.9 52.7°
Sets 17:54:48 0° 197° (SSW) 3,524 8.6 53.2°
